Snowfall_Accumulation
0.3 0.6 2.2 4.6 6.5 4.7 9.9 6.0 7.9 13.1 8.0 9.8 6.3 3.7 0.8 0.0 0.0 0.0 0.0 0.0 0.0 0.0 0.0 0.0 0.0 0.0 0.0 0.0 0.0 0.0 0.0 0.0 0.0 0.0 0.0 0.0 0.0 0.0 0.0 0.0 0.0 0.0 0.0 0.0
2.2 0.8 1.8 5.7 4.1 3.8 3.0 4.4 5.8 6.5 6.8 6.7 5.6 2.5 0.2 0.0 0.0 0.0 0.0 0.0 0.0 0.0 0.0 0.0 0.0 0.0 0.0 0.0 0.0 0.0 0.0 0.0 0.0 0.0 0.0 0.0 0.0 0.0 0.0 0.0 0.0 0.0 0.0 0.0
1.0 0.8 1.2 5.9 10.0 5.8 6.6 7.6 7.3 8.7 10.3 6.6 4.7 2.2 1.1 0.2 0.0 0.0 0.0 0.0 0.0 0.0 0.0 0.0 0.0 0.0 0.0 0.0 0.0 0.0 0.0 0.0 0.0 0.0 0.0 0.0 0.0 0.0 0.0 0.0 0.0 0.0 0.0 0.0
2.3 0.5 8.9 8.5 2.2 4.3 8.7 7.4 6.5 6.1 7.0 5.1 2.9 2.8 0.4 0.1 0.0 0.0 0.0 0.0 0.0 0.0 0.0 0.0 0.0 0.0 0.0 0.0 0.0 0.0 0.0 0.0 0.0 0.0 0.0 0.0 0.0 0.0 0.0 0.0 0.0 0.0 0.0 0.0
5.9 1.5 1.0 0.3 0.7 3.4 6.9 6.3 2.7 4.4 2.7 2.1 0.6 0.8 0.3 0.0 0.0 0.0 0.0 0.0 0.0 0.0 0.0 0.0 0.0 0.0 0.0 0.0 0.0 0.0 0.0 0.0 0.0 0.0 0.0 0.0 0.0 0.0 0.0 0.0 0.0 0.0 0.0 0.0
2.0 3.2 3.1 2.6 0.0 0.2 0.7 6.1 0.2 1.3 1.3 0.9 0.1 0.6 0.2 0.0 0.0 0.0 0.0 0.0 0.0 0.0 0.0 0.0 0.0 0.0 0.0 0.0 0.0 0.0 0.0 0.0 0.0 0.0 0.0 0.0 0.0 0.1 0.1 0.0 0.0 0.0 0.0 0.0
0.7 3.5 0.9 0.1 0.0 0.0 1.2 1.4 0.4 0.6 1.1 1.1 1.9 1.7 0.3 0.0 0.0 0.0 0.0 0.0 0.0 0.0 0.0 0.0 0.0 0.0 0.0 0.0 0.1 0.0 0.0 0.0 0.1 0.1 0.1 0.1 0.1 0.2 0.2 0.2 0.1 0.1 0.1 0.0
1.5 3.3 6.4 0.0 0.0 1.1 1.7 0.1 0.2 0.3 1.2 1.3 0.2 0.2 0.1 0.0 0.0 0.0 0.0 0.0 0.0 0.0 0.0 0.0 0.0 0.0 0.1 0.2 0.3 0.2 0.2 0.5 1.0 0.9 0.5 0.6 0.9 1.2 1.1 1.1 1.0 0.6 0.5 0.4
1.0 1.1 0.0 0.0 0.0 0.0 0.0 0.4 0.3 0.9 0.3 0.9 0.4 0.3 0.1 0.2 0.1 0.1 0.0 0.0 0.0 0.0 0.2 0.1 0.1 0.2 1.2 2.4 0.8 1.1 1.3 2.0 2.4 2.2 2.1 1.5 2.3 2.6 3.1 2.0 2.8 3.1 2.1 1.7
1.0 0.0 0.0 0.0 0.0 0.0 0.0 0.3 0.3 0.5 0.7 0.6 0.8 0.3 0.2 0.2 0.2 0.2 0.1 0.4 0.2 0.6 1.9 2.3 1.8 2.5 1.9 2.0 1.8 1.8 4.1 4.5 2.7 2.9 3.4 3.2 2.9 2.5 2.7 3.0 3.7 3.7 3.3 3.4
0.2 0.1 0.1 0.0 0.1 0.0 0.1 0.1 0.1 0.2 0.7 1.1 0.7 0.5 0.6 0.5 0.5 0.4 0.3 0.9 1.0 1.5 2.6 3.1 3.2 4.2 4.0 3.4 2.2 4.6 4.5 6.8 6.4 4.3 4.0 4.4 3.6 3.4 3.2 2.6 1.8 2.9 3.3 2.7
0.4 0.0 0.4 0.1 0.0 0.0 0.5 0.5 0.6 0.5 0.6 1.0 1.2 1.0 0.7 0.9 0.9 0.5 0.5 2.1 1.4 2.5 2.8 4.1 4.3 5.1 5.7 4.4 3.0 3.4 4.6 4.8 6.4 4.9 4.0 3.5 3.1 5.4 nan nan nan nan nan 3.6
2.3 0.1 0.2 0.0 0.1 0.3 0.6 0.5 0.8 0.8 1.5 1.8 1.7 1.4 0.9 1.3 1.3 nan 1.5 2.7 2.4 4.2 4.4 4.7 4.7 4.7 4.4 4.3 3.3 3.4 3.6 2.8 3.7 4.1 3.8 4.5 3.8 2.3 5.9 4.0 nan nan nan nan
0.1 1.1 0.8 0.2 1.5 0.4 0.4 0.5 0.7 1.4 2.1 2.3 2.6 1.6 1.6 2.2 1.9 1.9 3.2 5.0 3.4 3.1 4.1 4.2 3.2 4.9 4.2 2.9 2.9 4.0 4.2 nan 3.7 4.4 4.2 4.6 4.5 3.9 2.2 2.0 3.9 5.0 nan nan
1.1 0.8 1.2 0.9 0.5 0.7 0.7 0.8 1.2 2.1 2.5 3.4 3.1 4.9 4.5 4.7 4.2 4.7 4.0 3.5 2.5 2.6 3.4 2.9 2.5 5.4 3.7 2.6 2.5 3.1 3.3 4.4 3.6 3.7 3.5 3.2 3.3 3.4 3.2 2.4 1.9 2.2 2.6 2.0
2.3 2.2 2.1 1.9 2.3 2.2 1.9 2.2 1.6 3.8 3.3 5.2 5.5 6.2 6.9 4.5 3.9 3.8 4.5 2.4 2.0 4.6 4.4 3.2 3.5 5.6 3.9 2.5 2.6 2.9 3.2 nan 2.2 2.0 2.3 2.4 2.2 2.3 2.7 2.3 1.7 1.4 1.0 1.1
4.2 6.5 3.7 3.7 3.6 4.0 4.9 4.3 3.9 5.1 5.1 4.7 6.9 6.3 4.3 3.6 2.7 2.9 3.9 3.2 2.6 4.0 5.4 2.8 5.0 3.4 2.9 1.8 1.1 1.6 2.0 3.0 nan 1.6 1.7 1.6 1.7 2.0 1.5 1.5 1.6 1.1 1.0 0.5
7.0 7.1 5.0 5.2 5.9 4.3 4.5 4.6 4.4 3.5 4.3 5.4 4.8 3.9 4.0 2.8 4.7 5.1 6.3 4.2 1.6 1.9 2.8 3.3 2.2 1.7 1.5 1.2 0.6 1.2 1.0 1.5 1.3 1.3 1.3 1.4 2.0 1.3 1.6 1.8 1.8 1.9 1.4 0.8
6.5 6.6 6.2 5.3 4.5 4.2 4.4 4.5 4.2 4.5 5.2 5.9 3.0 4.7 4.2 3.7 3.5 3.6 2.6 1.2 1.4 0.6 2.5 1.2 nan 0.3 0.7 1.4 0.7 0.7 0.6 0.8 0.9 1.1 1.0 nan 1.2 1.2 1.5 1.8 2.1 1.7 1.4 1.5
7.0 7.1 5.7 5.9 3.9 3.1 4.6 5.7 3.3 2.0 3.5 2.0 1.4 1.1 1.1 1.3 1.4 1.0 0.8 1.2 1.4 0.8 0.1 0.6 0.5 0.4 0.3 0.8 nan 0.5 0.6 0.7 1.0 1.1 1.4 1.7 2.2 3.1 2.2 nan 2.5 3.0 2.9 2.3
5.4 3.1 3.2 1.4 1.6 1.5 0.8 0.5 0.5 0.4 0.5 0.3 0.2 0.5 0.6 0.1 0.0 0.1 0.2 0.5 0.3 0.0 0.0 nan 0.1 0.2 0.7 0.7 0.3 0.4 0.8 1.7 2.1 2.6 2.7 3.4 3.3 3.3 2.4 2.2 3.1 3.4 4.1 5.0
0.4 0.4 0.1 0.3 0.3 0.3 0.3 0.3 0.2 0.0 0.0 0.0 0.0 0.0 0.0 0.1 0.1 0.1 0.1 0.8 0.2 nan 0.2 0.7 0.3 nan 0.5 nan 0.7 1.0 1.5 2.5 3.8 5.4 6.1 4.8 4.8 5.5 5.8 6.0 8.0 7.0 8.5 8.7
0.0 0.0 0.0 0.0 0.1 0.2 0.1 0.2 0.1 0.3 0.2 0.1 0.1 0.1 0.4 0.4 0.2 0.8 1.7 0.1 0.1 nan 1.1 0.4 nan nan nan 0.5 0.9 1.7 3.7 5.8 5.7 5.4 6.0 7.4 7.5 8.7 9.4 9.9 9.6 9.8 10.5 10.4
0.0 0.0 0.0 0.0 0.0 0.0 0.1 0.2 0.1 0.1 0.2 0.1 0.1 0.1 0.2 0.7 0.2 0.2 0.3 nan nan 1.4 0.4 1.3 nan nan nan 1.7 3.0 5.4 6.2 6.9 8.0 8.6 7.8 nan 9.9 9.7 9.9 9.9 11.0 9.5 9.4 8.5
0.1 0.1 0.1 0.2 0.2 0.5 0.3 0.7 0.5 0.4 0.1 0.1 0.1 0.1 0.1 0.1 0.7 0.5 0.5 0.7 nan 0.4 0.6 nan nan nan 1.8 2.8 4.8 5.5 6.5 8.6 12.1 8.7 8.2 10.6 11.2 10.8 9.3 9.4 10.2 9.2 9.4 8.9
0.1 0.2 0.3 0.2 0.4 1.2 1.1 0.5 0.8 0.8 0.6 0.7 0.3 0.3 0.1 0.1 0.2 0.4 0.6 1.1 0.9 nan 1.3 2.1 1.6 2.2 3.5 4.2 4.7 5.3 5.8 6.7 7.5 8.2 8.7 9.1 8.9 8.8 8.8 8.3 8.5 8.7 8.1 9.7
0.3 nan 0.4 0.3 0.4 0.2 0.4 0.7 1.5 1.3 0.4 0.4 0.8 0.2 0.2 0.3 0.4 1.0 nan 1.1 1.1 1.2 1.6 2.4 2.7 nan 4.2 4.3 4.4 4.5 5.1 5.1 nan 6.5 7.2 8.9 8.4 9.4 8.1 8.4 9.4 8.1 8.3 7.4
Water_Equivalent
0.04 0.06 0.21 0.41 0.60 0.43 1.30 0.51 0.89 1.39 0.69 0.96 0.66 0.44 0.18 0.01 0.00 0.00 0.00 0.00 0.00 0.00 0.00 0.00 0.00 0.00 0.00 0.00 0.00 0.00 0.00 0.00 0.00 0.00 0.00 0.00 0.00 0.00 0.00 0.00 0.00 0.00 0.00 0.00
0.47 0.08 0.17 0.47 0.42 0.37 0.28 0.37 0.51 0.63 0.53 0.71 0.73 0.47 0.03 0.00 0.00 0.00 0.00 0.00 0.00 0.00 0.00 0.00 0.00 0.00 0.00 0.00 0.00 0.00 0.00 0.00 0.00 0.00 0.00 0.00 0.00 0.00 0.00 0.00 0.00 0.00 0.00 0.00
0.11 0.07 0.12 0.81 0.86 0.56 0.60 0.62 0.62 0.60 0.82 0.69 0.52 0.27 0.14 0.03 0.00 0.00 0.00 0.00 0.00 0.00 0.00 0.00 0.00 0.00 0.00 0.00 0.00 0.00 0.00 0.00 0.00 0.00 0.00 0.00 0.00 0.00 0.00 0.00 0.00 0.00 0.00 0.00
0.42 0.10 1.08 0.75 0.25 0.45 0.82 0.64 0.57 0.53 0.64 0.51 0.31 0.35 0.05 0.02 0.01 0.00 0.00 0.00 0.00 0.00 0.00 0.00 0.00 0.00 0.00 0.00 0.00 0.00 0.00 0.00 0.00 0.00 0.00 0.00 0.00 0.00 0.00 0.00 0.00 0.00 0.00 0.00
0.79 0.18 0.08 0.04 0.08 0.30 0.54 0.51 0.26 0.37 0.25 0.21 0.07 0.11 0.04 0.00 0.00 0.00 0.00 0.00 0.00 0.00 0.00 0.00 0.00 0.00 0.00 0.00 0.00 0.00 0.00 0.00 0.00 0.00 0.00 0.00 0.00 0.00 0.00 0.00 0.00 0.00 0.00 0.00
0.35 0.37 0.29 0.19 0.01 0.03 0.09 0.55 0.03 0.12 0.12 0.08 0.01 0.05 0.02 0.00 0.00 0.00 0.00 0.00 0.00 0.00 0.00 0.00 0.00 0.00 0.00 0.00 0.00 0.00 0.00 0.00 0.00 0.00 0.00 0.00 0.01 0.03 0.02 0.00 0.00 0.00 0.00 0.00
0.12 0.46 0.08 0.01 0.00 0.00 0.11 0.13 0.04 0.06 0.12 0.12 0.19 0.19 0.04 0.00 0.00 0.00 0.00 0.00 0.00 0.00 0.00 0.00 0.00 0.00 0.00 0.01 0.02 0.02 0.02 0.02 0.02 0.02 0.03 0.03 0.04 0.05 0.05 0.05 0.03 0.03 0.02 0.01
0.22 0.47 0.80 0.00 0.00 0.08 0.15 0.01 0.02 0.03 0.14 0.15 0.03 0.03 0.01 0.00 0.00 0.00 0.00 0.00 0.00 0.00 0.00 0.00 0.00 0.00 0.05 0.08 0.10 0.05 0.05 0.11 0.22 0.22 0.13 0.13 0.20 0.29 0.27 0.30 0.27 0.16 0.11 0.10
0.10 0.09 0.00 0.00 0.00 0.00 0.00 0.04 0.03 0.10 0.04 0.12 0.06 0.04 0.02 0.03 0.01 0.01 0.01 0.00 0.00 0.00 0.05 0.03 0.04 0.06 0.24 0.50 0.20 0.27 0.32 0.47 0.54 0.53 0.54 0.39 0.53 0.70 0.91 0.53 0.71 0.75 0.48 0.35
0.12 0.01 0.00 0.00 0.00 0.00 0.00 0.03 0.03 0.06 0.09 0.08 0.09 0.04 0.03 0.03 0.04 0.03 0.03 0.07 0.05 0.09 0.31 0.39 0.37 0.75 0.50 0.54 0.51 0.52 0.98 1.13 0.80 0.85 1.03 0.94 0.87 0.72 0.76 0.81 0.91 0.90 0.74 0.65
0.03 0.01 0.01 0.01 0.01 0.01 0.01 0.01 0.02 0.03 0.09 0.14 0.09 0.06 0.08 0.07 0.07 0.06 0.05 0.13 0.14 0.21 0.36 0.46 0.55 0.82 0.86 0.75 0.56 1.04 1.04 1.45 1.32 1.04 0.93 1.01 0.87 0.84 0.79 0.66 0.46 0.64 0.70 0.56
0.05 0.00 0.04 0.02 0.01 0.00 0.05 0.05 0.07 0.06 0.08 0.12 0.15 0.13 0.09 0.12 0.12 0.08 0.07 0.29 0.21 0.35 0.41 0.61 0.68 0.84 1.00 0.92 0.61 0.62 0.74 0.83 1.15 0.88 0.77 0.68 0.59 1.01 nan nan nan nan nan 0.71
0.21 0.02 0.03 0.01 0.01 0.04 0.07 0.06 0.09 0.10 0.18 0.21 0.22 0.18 0.12 0.17 0.17 nan 0.20 0.36 0.33 0.56 0.62 0.64 0.67 0.70 0.71 0.71 0.56 0.49 0.50 0.41 0.64 0.75 0.67 0.71 0.64 0.35 0.81 0.73 nan nan nan nan
0.02 0.11 0.11 0.04 0.17 0.05 0.05 0.06 0.09 0.18 0.26 0.28 0.32 0.20 0.20 0.28 0.26 0.24 0.39 0.64 0.45 0.42 0.54 0.57 0.44 0.66 0.63 0.50 0.45 0.59 0.63 nan 0.54 0.64 0.63 0.66 0.67 0.58 0.33 0.28 0.53 0.71 nan nan
0.15 0.11 0.15 0.12 0.07 0.11 0.10 0.11 0.15 0.24 0.29 0.41 0.39 0.60 0.56 0.55 0.49 0.55 0.51 0.46 0.32 0.33 0.45 0.39 0.33 0.70 0.53 0.38 0.36 0.44 0.46 0.60 0.50 0.52 0.49 0.46 0.47 0.49 0.45 0.33 0.26 0.30 0.39 0.31
0.28 0.28 0.27 0.22 0.27 0.27 0.23 0.26 0.19 0.42 0.38 0.60 0.64 0.72 0.82 0.55 0.48 0.47 0.57 0.32 0.24 0.54 0.54 0.40 0.44 0.74 0.55 0.35 0.36 0.41 0.46 nan 0.30 0.28 0.31 0.32 0.29 0.30 0.35 0.29 0.22 0.18 0.13 0.15
0.45 0.66 0.41 0.40 0.40 0.45 0.55 0.51 0.45 0.58 0.58 0.54 0.79 0.75 0.52 0.43 0.31 0.33 0.46 0.39 0.32 0.49 0.67 0.36 0.63 0.46 0.39 0.24 0.16 0.21 0.27 0.42 nan 0.21 0.23 0.21 0.22 0.25 0.19 0.20 0.22 0.14 0.12 0.07
0.82 0.81 0.57 0.57 0.64 0.47 0.49 0.51 0.51 0.40 0.48 0.62 0.57 0.46 0.46 0.32 0.51 0.57 0.73 0.51 0.20 0.23 0.35 0.43 0.29 0.22 0.19 0.15 0.08 0.17 0.14 0.20 0.18 0.16 0.17 0.17 0.24 0.19 0.26 0.28 0.28 0.30 0.21 0.13
0.70 0.67 0.65 0.56 0.48 0.45 0.47 0.48 0.46 0.51 0.60 0.69 0.34 0.52 0.48 0.43 0.40 0.42 0.31 0.14 0.16 0.08 0.29 0.16 nan 0.05 0.09 0.19 0.09 0.11 0.09 0.12 0.13 0.15 0.14 nan 0.21 0.20 0.26 0.32 0.35 0.31 0.27 0.30
0.68 0.72 0.58 0.59 0.40 0.33 0.48 0.62 0.37 0.21 0.40 0.23 0.16 0.12 0.12 0.15 0.16 0.12 0.10 0.14 0.16 0.12 0.02 0.07 0.06 0.05 0.04 0.11 nan 0.07 0.09 0.11 0.15 0.17 0.22 0.27 0.38 0.50 0.39 nan 0.48 0.58 0.57 0.46
0.50 0.30 0.30 0.13 0.15 0.14 0.08 0.05 0.05 0.04 0.05 0.03 0.02 0.05 0.07 0.01 0.01 0.01 0.03 0.08 0.04 0.00 0.00 nan 0.03 0.04 0.12 0.10 0.05 0.07 0.13 0.27 0.35 0.45 0.47 0.60 0.58 0.63 0.44 0.42 0.59 0.63 0.75 0.83
0.04 0.03 0.01 0.02 0.03 0.03 0.03 0.03 0.02 0.00 0.00 0.00 0.00 0.00 0.00 0.02 0.01 0.02 0.02 0.12 0.02 nan 0.04 0.13 0.08 nan 0.14 nan 0.19 0.23 0.32 0.49 0.70 0.92 1.01 0.82 0.80 0.89 0.94 0.98 1.20 1.07 1.25 1.26
0.00 0.00 0.00 0.00 0.00 0.01 0.01 0.02 0.01 0.03 0.03 0.01 0.02 0.02 0.04 0.05 0.03 0.13 0.22 0.02 0.03 nan 0.19 0.09 nan nan nan 0.15 0.20 0.36 0.62 0.92 0.87 0.83 0.94 1.14 1.14 1.30 1.33 1.36 1.35 1.35 1.42 1.38
0.01 0.00 0.00 0.00 0.00 0.00 0.00 0.01 0.01 0.02 0.02 0.01 0.01 0.01 0.04 0.11 0.03 0.02 0.04 nan nan 0.21 0.07 0.23 nan nan nan 0.35 0.51 0.86 0.92 0.98 1.12 1.21 1.07 nan 1.36 1.31 1.33 1.32 1.43 1.24 1.22 1.08
0.02 0.02 0.03 0.04 0.03 0.06 0.05 0.10 0.08 0.07 0.02 0.02 0.01 0.01 0.01 0.01 0.08 0.07 0.06 0.11 nan 0.06 0.10 nan nan nan 0.27 0.41 0.68 0.76 0.85 1.11 1.60 1.10 1.01 1.32 1.39 1.32 1.13 1.14 1.25 1.11 1.15 1.10
0.02 0.05 0.05 0.02 0.04 0.16 0.16 0.09 0.11 0.12 0.09 0.10 0.05 0.05 0.02 0.01 0.02 0.06 0.08 0.17 0.13 nan 0.20 0.29 0.22 0.31 0.48 0.55 0.59 0.65 0.70 0.80 0.89 0.97 1.00 1.04 1.03 1.01 0.98 0.93 0.94 0.98 0.92 1.13
0.06 nan 0.08 0.05 0.06 0.03 0.05 0.08 0.18 0.15 0.05 0.05 0.10 0.02 0.03 0.05 0.05 0.13 nan 0.15 0.15 0.16 0.22 0.31 0.36 nan 0.54 0.52 0.51 0.51 0.57 0.57 nan 0.72 0.79 1.01 0.94 1.06 0.88 0.91 1.05 0.88 0.91 0.81
SL_Ratio
8.6 10.2 10.7 11.1 10.9 11.1 7.6 11.7 8.8 9.4 11.7 10.3 9.5 8.3 4.4 4.1 nan nan nan nan nan nan nan nan nan nan nan nan nan nan nan nan nan nan nan nan nan nan nan nan nan nan nan nan
4.7 10.0 10.7 12.2 9.9 10.3 10.6 11.8 11.3 10.3 12.9 9.4 7.7 5.2 7.2 8.0 nan nan nan nan nan nan nan nan nan nan nan nan nan nan nan nan nan nan nan nan nan nan nan nan nan nan nan nan
9.7 10.7 10.0 7.4 11.6 10.4 11.1 12.2 11.7 14.4 12.5 9.6 9.1 8.2 7.9 7.1 7.5 nan nan nan nan nan nan nan nan nan nan nan nan nan nan nan nan nan nan nan nan nan nan nan nan nan nan nan
5.6 5.3 8.2 11.4 8.6 9.6 10.6 11.6 11.6 11.5 11.0 10.0 9.4 7.9 7.7 7.1 6.7 5.0 nan nan nan nan nan nan nan nan nan nan nan nan nan nan nan nan nan nan nan nan nan nan nan nan nan nan
7.5 8.5 12.7 8.6 9.3 11.1 12.7 12.3 10.6 11.8 10.9 9.8 8.7 6.9 7.7 0.0 nan 5.0 nan nan nan nan nan nan nan nan nan nan nan nan nan nan nan nan nan nan nan nan nan nan nan 0.0 nan nan
5.5 8.8 10.7 14.1 7.1 6.8 8.4 11.2 8.5 10.5 10.2 10.1 9.1 12.3 10.1 7.5 nan nan nan nan nan nan nan nan nan nan nan nan nan nan nan nan nan nan nan 5.0 2.4 2.5 2.5 2.9 nan nan nan nan
5.8 7.6 10.9 11.6 nan 5.7 10.8 11.4 9.4 9.3 9.1 9.1 10.3 8.9 7.4 5.7 nan nan nan nan nan nan nan nan nan nan nan 2.6 2.4 2.5 2.5 2.5 2.5 2.8 3.0 2.8 3.5 4.0 3.9 3.0 2.5 2.8 3.5 3.8
6.9 7.0 8.1 nan nan 14.6 11.2 10.5 7.4 8.8 8.4 8.7 7.7 6.9 7.0 5.8 10.0 nan nan nan nan nan nan nan nan nan 2.8 2.8 3.2 3.8 4.2 4.4 4.6 4.3 4.3 4.3 4.6 4.1 4.2 3.8 3.6 3.7 4.4 4.5
9.4 11.9 nan 10.0 10.0 10.0 10.0 10.6 10.1 9.1 8.2 7.4 7.3 7.5 7.2 7.1 6.5 6.0 5.9 5.0 3.0 4.0 4.5 2.7 2.8 3.0 4.9 4.7 4.0 4.0 4.2 4.3 4.4 4.2 3.9 3.7 4.3 3.7 3.4 3.7 3.9 4.2 4.4 5.1
8.2 6.3 nan nan nan nan nan 9.8 8.7 7.9 7.3 7.3 8.2 7.8 7.1 6.4 6.1 5.6 4.9 5.5 5.0 6.0 6.2 5.8 4.8 3.4 3.7 3.8 3.4 3.5 4.2 4.0 3.4 3.4 3.3 3.4 3.3 3.5 3.6 3.7 4.0 4.2 4.5 5.2
7.5 6.3 6.4 4.2 4.7 5.2 9.7 8.6 7.9 6.8 7.3 7.9 7.9 7.7 7.5 6.9 6.7 6.5 6.4 6.6 6.7 7.2 7.2 6.7 5.8 5.1 4.7 4.5 4.0 4.4 4.3 4.7 4.8 4.2 4.2 4.3 4.2 4.0 4.0 3.9 4.0 4.6 4.7 4.9
8.4 6.7 10.2 5.8 4.0 5.0 9.5 8.9 8.1 8.1 7.9 7.8 7.9 7.9 7.4 7.4 7.0 6.8 7.3 7.1 6.7 7.1 6.8 6.8 6.3 6.1 5.7 4.8 4.8 5.4 6.2 5.8 5.5 5.6 5.2 5.2 5.3 5.4 nan nan nan nan nan 5.0
11.3 5.8 7.2 5.4 4.5 7.5 9.0 8.4 8.0 8.2 8.1 8.4 8.0 8.0 7.7 7.9 7.6 nan 7.3 7.3 7.4 7.5 7.0 7.3 7.1 6.8 6.3 6.2 5.9 6.9 7.1 6.8 5.8 5.5 5.7 6.3 5.9 6.4 7.2 5.5 nan nan nan nan
5.1 10.2 7.5 5.2 9.0 8.0 7.8 7.6 7.9 8.0 8.0 8.0 8.2 7.9 8.0 8.1 7.4 7.8 8.2 7.8 7.5 7.5 7.6 7.4 7.4 7.4 6.8 5.8 6.4 6.8 6.6 nan 6.9 6.8 6.6 6.9 6.8 6.7 6.5 7.1 7.4 7.0 nan nan
7.0 7.2 8.6 7.4 6.5 6.9 6.8 7.0 8.1 8.6 8.5 8.4 8.0 8.2 8.1 8.5 8.5 8.5 7.9 7.6 7.6 7.7 7.7 7.5 7.6 7.7 6.9 6.9 7.0 7.2 7.2 7.2 7.2 7.1 7.0 7.0 7.0 7.0 7.1 7.4 7.5 7.3 6.7 6.5
8.1 8.1 7.7 8.4 8.5 8.2 8.2 8.3 8.7 9.0 8.6 8.6 8.6 8.6 8.5 8.2 8.2 8.2 7.9 7.6 8.3 8.6 8.1 7.9 7.9 7.6 7.1 7.0 7.2 7.2 6.9 nan 7.2 7.3 7.4 7.4 7.4 7.5 7.8 7.7 7.8 7.7 7.6 7.2
9.3 9.8 9.0 9.1 9.1 9.0 8.9 8.5 8.7 8.8 8.7 8.8 8.7 8.4 8.4 8.5 8.5 8.7 8.5 8.0 8.0 8.1 8.0 7.8 7.9 7.4 7.4 7.3 7.1 7.3 7.4 7.2 nan 7.6 7.7 7.6 7.8 8.0 7.8 7.3 7.4 8.0 8.4 7.2
8.5 8.7 8.8 9.0 9.3 9.2 9.1 8.8 8.7 8.7 8.9 8.8 8.5 8.5 8.7 8.8 9.3 9.0 8.6 8.2 8.0 8.1 8.0 7.8 7.7 7.6 7.7 7.6 7.5 6.9 7.0 7.6 7.5 7.7 7.6 7.9 8.1 6.9 6.3 6.2 6.3 6.4 6.4 6.4
9.4 9.8 9.5 9.4 9.3 9.3 9.4 9.4 9.2 8.8 8.7 8.6 8.8 9.1 8.9 8.7 8.7 8.7 8.4 8.2 8.4 7.6 8.6 7.8 nan 7.6 7.5 7.5 7.0 6.6 6.8 7.1 7.3 7.4 7.3 nan 5.8 5.7 5.7 5.8 5.9 5.5 5.1 4.8
10.4 9.8 9.9 10.1 9.6 9.6 9.7 9.3 9.0 9.2 8.9 8.6 8.8 8.7 9.0 8.9 8.7 8.6 8.4 8.7 8.5 7.0 6.4 7.9 7.6 7.5 8.0 7.3 nan 6.5 6.6 6.7 7.0 6.7 6.4 6.3 5.9 6.1 5.6 nan 5.2 5.2 5.1 5.1
11.0 10.6 10.7 10.8 11.1 10.4 10.2 9.9 9.9 10.2 9.7 9.3 9.4 9.1 9.1 8.8 8.3 8.4 6.8 6.8 8.8 8.0 4.6 nan 4.5 4.8 5.9 6.6 6.9 6.2 5.9 6.4 6.1 5.8 5.8 5.6 5.6 5.3 5.4 5.3 5.3 5.3 5.5 6.0
11.5 11.5 11.4 11.0 10.1 10.9 11.0 10.5 10.2 10.0 10.0 6.7 7.8 3.0 6.3 6.0 6.1 7.0 8.7 6.6 7.7 nan 5.4 5.4 4.0 nan 4.0 nan 3.6 4.5 4.8 5.0 5.5 5.8 6.1 5.9 6.0 6.2 6.2 6.1 6.6 6.5 6.8 6.9
9.1 11.7 11.7 12.0 11.4 11.8 10.9 11.3 11.0 10.6 9.6 8.0 6.6 6.6 8.8 9.2 8.2 6.7 8.0 8.4 3.6 nan 5.8 4.4 nan nan nan 3.7 4.6 4.9 5.9 6.4 6.6 6.6 6.4 6.5 6.5 6.7 7.0 7.2 7.1 7.3 7.4 7.5
3.4 3.8 12.5 10.0 nan 10.0 12.9 12.0 9.3 7.2 9.8 10.0 10.3 7.5 5.3 6.2 6.6 8.8 7.8 nan nan 6.4 5.5 5.8 nan nan nan 4.9 5.8 6.3 6.7 7.0 7.1 7.1 7.2 nan 7.2 7.4 7.4 7.5 7.7 7.6 7.7 7.8
4.2 4.3 4.1 4.5 5.4 8.3 6.3 6.4 6.5 6.1 5.0 5.4 6.9 7.7 7.6 8.7 8.4 7.8 7.1 6.8 nan 6.4 6.5 nan nan nan 6.7 6.9 7.0 7.3 7.6 7.7 7.5 7.9 8.1 8.0 8.1 8.2 8.3 8.2 8.2 8.3 8.2 8.1
4.5 4.6 5.7 8.7 9.5 7.5 7.3 5.8 7.2 6.4 6.1 7.2 6.2 5.3 6.0 8.1 7.9 7.2 7.4 6.8 6.6 nan 6.9 7.2 7.0 7.0 7.4 7.7 8.0 8.2 8.3 8.4 8.4 8.5 8.7 8.8 8.7 8.7 8.9 9.0 9.0 8.9 8.9 8.6
5.6 nan 4.7 7.0 6.6 7.8 8.8 8.7 8.4 8.6 9.7 8.2 8.2 7.7 7.1 6.8 7.4 7.7 nan 7.5 7.4 7.4 7.2 7.7 7.5 nan 7.8 8.3 8.7 8.8 8.9 8.9 nan 9.0 9.1 8.8 8.9 8.9 9.2 9.2 9.0 9.2 9.1 9.2